Hourly Data

Hourly Data Report for February 27, 2012

All times are specified in Local Standard Time (LST). Add 1 hour to adjust for Daylight Saving Time where and when it is observed.

Metadata including Station Name, Province, Latitude, Longitude, Elevation, Climate ID, WMO ID, TC ID
MONTREAL/PIERRE ELLIOTT TRUDEAU INTL A
QUEBEC
Latitude: 45°28'00.000" N Longitude: 73°45'00.000" W Elevation: 36.00 m
Climate ID: 7025250 WMO ID: 71627 TC ID: YUL
Hourly Data Report for February 27, 2012
Temp Definition
°C

Dew Point Temp Definition
°C

Rel Hum Definition
%

Wind Dir Definition
10's deg
Wind Spd Definition
km/h

Visibility Definition
km

Stn Press Definition
kPa

Hmdx Definition

Wind Chill Definition

Weather Definition

TIME
00:00 -8.2 -16.2 52 6 7 25.0 102.63 -12 Cloudy
01:00 -8.6 -15.5 57 14 4 25.0 102.61 -11 Cloudy
02:00 -8.5 -14.2 63 10 13 25.0 102.60 -14 Cloudy
03:00 -8.3 -13.7 65 8 9 25.0 102.59 -13 Cloudy
04:00 -8.2 -14.4 61 9 9 25.0 102.58 -13 Cloudy
05:00 -8.4 -15.1 58 9 13 25.0 102.54 -14 Mostly Cloudy
06:00 -9.0 -15.2 61 8 17 25.0 102.42 -16 Mostly Cloudy
07:00 -9.4 -14.6 66 5 20 48.3 102.31 -17 Cloudy
08:00 -9.8 -14.8 67 5 19 48.3 102.25 -17 Cloudy
09:00 -9.4 -14.9 64 5 22 48.3 102.10 -17 Cloudy
10:00 -8.7 -14.6 62 5 22 24.1 101.94 -17 Cloudy
11:00 -8.7 -14.2 64 5 28 48.3 101.74 -18 Mostly Cloudy
12:00 -6.3 -12.8 60 5 15 48.3 101.59 -12 Mostly Cloudy
13:00 -4.9 -11.6 59 4 19 48.3 101.41 -11 Cloudy
14:00 -5.5 -11.5 63 3 22 24.1 101.34 -13 Cloudy
15:00 -5.1 -9.4 72 4 20 1.6 101.19 -12 Snow
16:00 -4.9 -7.9 79 3 19 19.3 101.13 -11 Snow
17:00 -5.2 -7.9 81 4 20 24.1 101.01 -12 Cloudy
18:00 -6.3 -8.9 82 2 24 25.0 101.10 -14 Cloudy
19:00 -7.1 -9.6 82 4 22 2.0 101.14 -15 Snow
20:00 -7.2 -9.6 83 33 9 25.0 101.25 -12 Snow
21:00 -7.3 -9.7 83 30 4 25.0 101.29 -9 Snow
22:00 -7.1 -9.6 82   0 8.0 101.33 Snow
23:00 -6.8 -9.1 84 31 4 6.4 101.38 -9 Snow

Notes on Data Quality.

Legend
  • M = Missing
  • E = Estimated
  • NA = Not Available
  • ‡ = Partner data that is not subject to review by the National Climate Archives